[[{"header":{"parameterUnit":"m.s-1","parameterCategory":2,"la1":30.2991,"la2":30.254,"lo1":-89.0895,"lo2":-89.0444,"dy":0.0017,"dx":0.0017,"nx":28,"ny":28,"refTime":"2025-07-26T03:00:00:Z","depth":"0","parameterNumber":2,"parameterNumberName":"U-component_of_CURRENTS"},"data":[0,0,0,0,0,0,0,0,0,0,0,0,0,0,0,0,0,0,0,0,0,0,0,0,0,0,0,0,0,0,0,0,0,0,0,0,0,0,0,0,0,0,0,0,0,0,0,0,0,0,0,0,0,0,0,0,0,0,-0.205,-0.205,0,-0.2071,-0.2071,-0.2071,-0.2043,-0.2042,-0.2042,-0.2041,-0.2012,-0.2012,-0.2012,0,0,0,0,0,0,0,0,0,0,0,0,0,-0.197,-0.1972,-0.205,-0.205,-0.2051,-0.2071,-0.2071,-0.2072,-0.2043,-0.2042,-0.2041,-0.204,-0.2012,-0.2012,-0.2012,0,0,0,0,0,0,0,0,0,0,0,0,0,-0.1997,-0.1972,-0.205,-0.2041,-0.2041,-0.2071,-0.2071,-0.2072,-0.2043,-0.2042,-0.2041,-0.204,-0.2012,-0.2012,-0.2012,-0.2035,0,0,-0.2012,-0.2011,0,0,0,0,0,0,0,0,-0.1996,-0.2,-0.2042,-0.2042,-0.2041,-0.2056,-0.2033,-0.2058,-0.2044,-0.204,-0.2041,-0.2039,-0.2024,-0.2023,-0.2027,-0.2034,-0.2033,-0.2012,-0.2011,-0.2011,-0.2011,0,0,0,0,0,0,0,-0.1994,-0.1999,-0.2056,-0.2042,-0.2042,-0.2032,-0.2034,-0.2037,-0.2035,-0.204,-0.2039,-0.2045,-0.2023,-0.2027,-0.2026,-0.2032,-0.2012,-0.2011,-0.2011,-0.2011,-0.2054,-0.2055,0,0,0,0,0,0,-0.1999,-0.1997,-0.2055,-0.2057,-0.2018,-0.2034,-0.2037,-0.205,-0.2036,-0.2034,-0.2046,-0.2044,-0.2028,-0.2026,-0.2025,-0.2048,-0.2011,-0.2011,-0.2011,-0.2053,-0.2054,-0.2056,0,0,0,0,0,0,-0.1997,-0.2004,-0.2054,-0.2029,-0.2035,-0.2037,-0.2052,-0.2051,-0.2053,-0.2043,-0.2039,-0.2049,-0.2027,-0.2025,-0.2032,-0.2046,-0.2011,-0.2011,-0.2052,-0.2053,-0.2055,-0.2096,0,0,0,0,0,0,-0.1995,-0.2003,-0.2011,-0.203,-0.2036,-0.2077,-0.2054,-0.2053,-0.2061,-0.2057,-0.2044,-0.204,-0.2026,-0.2032,-0.2032,-0.2045,-0.2011,-0.205,-0.2052,-0.2054,-0.2093,-0.2099,-0.2104,0,0,0,0,0,-0.1992,-0.201,-0.2011,-0.2018,-0.2048,-0.2079,-0.2081,-0.2076,-0.2062,-0.2071,-0.2061,-0.204,-0.2046,-0.2034,-0.2033,-0.2046,-0.2049,-0.2052,-0.2054,-0.2091,-0.2098,-0.2104,0,0,0,0,0,0,-0.1976,-0.201,-0.2011,-0.2037,-0.2058,-0.2075,-0.2081,-0.2082,-0.2082,-0.2074,-0.2056,-0.2053,-0.2065,-0.2055,-0.2042,-0.2067,-0.2044,-0.2047,-0.2072,-0.2078,-0.2084,-0.208,-0.2011,0,0,0,0,0,-0.1979,-0.1999,-0.203,-0.2048,-0.2061,-0.2072,-0.2081,-0.2084,-0.2091,-0.2089,-0.2081,-0.2074,-0.2078,-0.2076,-0.2078,-0.2093,-0.2077,-0.2102,-0.2107,-0.2112,-0.211,-0.2101,-0.2104,-0.2064,-0.2064,-0.2064,0,0,-0.1975,-0.1997,-0.2006,-0.2045,-0.2057,-0.2088,-0.2074,-0.2096,-0.2115,-0.2087,-0.21,-0.2094,-0.2088,-0.2103,-0.2107,-0.2094,-0.2118,-0.2115,-0.2119,-0.2114,-0.2104,-0.2107,-0.2111,-0.2066,-0.2066,-0.2065,0,0,-0.1986,-0.2001,-0.2025,-0.2051,-0.2082,-0.2095,-0.2105,-0.2128,-0.213,-0.2151,-0.2135,-0.2137,-0.2143,-0.214,-0.214,-0.2177,-0.2148,-0.218,-0.22,-0.2192,-0.2195,-0.2197,-0.219,-0.2191,-0.218,-0.218,-0.218,0,-0.1978,-0.2018,-0.2036,-0.2071,-0.2091,-0.2102,-0.2134,-0.2148,-0.2168,-0.2171,-0.2159,-0.2168,-0.2161,-0.2177,-0.2188,-0.2188,-0.2177,-0.2174,-0.2197,-0.2199,-0.2201,-0.2193,-0.2194,-0.2182,-0.2182,-0.2182,-0.2181,0,-0.2013,-0.2046,-0.2063,-0.211,-0.2135,-0.2164,-0.2193,-0.2208,-0.2209,-0.2216,-0.2229,-0.2222,-0.222,-0.2226,-0.2217,-0.2231,-0.2219,-0.2206,-0.2177,-0.2207,-0.2197,-0.2197,-0.2185,-0.2185,-0.2184,-0.2183,0,0,-0.1985,-0.2072,-0.2074,-0.2104,-0.2158,-0.2179,-0.2217,-0.2249,-0.226,-0.2271,-0.228,-0.2291,-0.2274,-0.2274,-0.2264,-0.2259,-0.2264,-0.2238,-0.2237,-0.2225,-0.2246,-0.2182,-0.2175,-0.2252,-0.2252,-0.2252,-0.2237,0,-0.2002,-0.2072,-0.2112,-0.2166,-0.2201,-0.2231,-0.2263,-0.2289,-0.2299,-0.2309,-0.2303,-0.2308,-0.2298,-0.2292,-0.2288,-0.2269,-0.2265,-0.2269,-0.2224,-0.2223,-0.2157,-0.2173,-0.207,-0.2043,-0.2237,-0.2237,-0.2237,0,-0.2013,-0.2062,-0.2123,-0.2194,-0.2211,-0.2243,-0.228,-0.2312,-0.2335,-0.234,-0.2343,-0.2334,-0.2335,-0.2315,-0.2299,-0.2301,-0.2277,-0.2261,-0.226,-0.2182,-0.2158,-0.2044,-0.2035,-0.2021,-0.2237,-0.2237,-0.2237,0,-0.1968,-0.206,-0.2106,-0.2133,-0.2218,-0.224,-0.2274,-0.2311,-0.233,-0.235,-0.2356,-0.2356,-0.2349,-0.2328,-0.2297,-0.2296,-0.2268,-0.2261,-0.2185,-0.2181,-0.2074,-0.2059,-0.2036,-0.2246,-0.2246,-0.2246,-0.2246,0,-0.1962,-0.1994,-0.2089,-0.2113,-0.2158,-0.2218,-0.225,-0.2286,-0.2322,-0.2327,-0.2359,-0.2355,-0.2351,-0.2333,-0.2303,-0.224,-0.2273,-0.2187,-0.217,-0.2087,-0.2074,-0.204,-0.2061,-0.2245,-0.2245,-0.2245,-0.2246,0,-0.19,-0.1968,-0.2023,-0.2115,-0.214,-0.2164,-0.2237,-0.2252,-0.2303,-0.2309,-0.2313,-0.2351,-0.2327,-0.2317,-0.228,-0.2239,-0.2148,-0.2161,-0.2064,-0.2035,-0.1937,-0.1964,-0.1922,-0.187,-0.2071,-0.2069,-0.2067,0,-0.1874,-0.1898,-0.2,-0.2022,-0.2062,-0.2112,-0.2139,-0.2221,-0.2228,-0.2288,-0.2272,-0.2289,-0.2249,-0.2198,-0.2133,-0.2068,-0.208,-0.1952,-0.1928,-0.1914,-0.1932,-0.1956,-0.1918,-0.1811,-0.1808,-0.1805,-0.1803,0,-0.1805,-0.1843,-0.1885,-0.1932,-0.1971,-0.1998,-0.2037,-0.2056,-0.2126,-0.215,-0.2141,-0.2126,-0.2101,-0.1991,-0.194,-0.1888,-0.1897,-0.1891,-0.1897,-0.1741,-0.1745,-0.1691,-0.1854,-0.1778,-0.178,-0.1782,-0.1783,-0.1784,-0.1728,-0.174,-0.178,-0.1813,-0.1837,-0.1813,-0.1774,-0.1823,-0.1819,-0.1797,-0.1939,-0.1886,-0.1877,-0.1777,-0.1736,-0.1644,-0.1704,-0.1596,-0.1636,-0.1667,-0.1594,-0.1702,-0.1593,-0.1595,-0.1596,-0.1597,-0.1598,0,-0.1614,-0.1628,-0.1649,-0.1641,-0.1579,-0.165,-0.1632,-0.1544,-0.147,-0.1562,-0.1557,-0.1602,-0.1524,-0.1532,-0.1473,-0.141,-0.1385,-0.1397,-0.1411,-0.1387,-0.1485,-0.1448,-0.1276,-0.1276,-0.1276,-0.1276,-0.1277,-0.1277,-0.1552,-0.1516,-0.153,-0.1368,-0.1348,-0.121,-0.1165,-0.1077,-0.1063,-0.1045,-0.1112,-0.1178,-0.1302,-0.1454,-0.1387,-0.1323,-0.131,-0.1265,-0.1312,-0.1394,-0.1416,-0.1437,-0.1406,-0.1229,-0.1229,-0.1144,-0.1144,-0.1143]},{"header":{"parameterUnit":"m.s-1","parameterCategory":2,"la1":30.2991,"la2":30.254,"lo1":-89.0895,"lo2":-89.0444,"dy":0.0017,"dx":0.0017,"nx":28,"ny":28,"refTime":"2025-07-26T03:00:00:Z","depth":"0","parameterNumber":3,"parameterNumberName":"V-component_of_CURRENTS"},"data":[0,0,0,0,0,0,0,0,0,0,0,0,0,0,0,0,0,0,0,0,0,0,0,0,0,0,0,0,0,0,0,0,0,0,0,0,0,0,0,0,0,0,0,0,0,0,0,0,0,0,0,0,0,0,0,0,0,0,0.0029,0.003,0,0.0099,0.01,0.0101,0.0153,0.0154,0.0154,0.0155,0.0255,0.0257,0.0259,0,0,0,0,0,0,0,0,0,0,0,0,0,-0.0023,-0.0022,0.0029,0.003,0.0031,0.0099,0.01,0.0101,0.0153,0.0154,0.0154,0.0155,0.0254,0.0257,0.0259,0,0,0,0,0,0,0,0,0,0,0,0,0,0.0019,-0.0022,0.0029,0.0065,0.0069,0.0099,0.01,0.0101,0.0153,0.0154,0.0155,0.0155,0.0253,0.0256,0.026,0.0268,0,0,0.027,0.0272,0,0,0,0,0,0,0,0,0.0017,0.0021,0.0059,0.0062,0.0067,0.0117,0.0118,0.0158,0.0153,0.0122,0.0155,0.0155,0.0211,0.0218,0.023,0.0273,0.0277,0.027,0.0273,0.0274,0.0275,0,0,0,0,0,0,0,0.0014,0.0019,0.0058,0.0059,0.0064,0.0089,0.0096,0.0126,0.0163,0.0125,0.0129,0.0135,0.0213,0.0227,0.0233,0.0279,0.027,0.0273,0.0276,0.0277,0.0344,0.0343,0,0,0,0,0,0,0.0001,0.0016,0.0056,0.006,0.0042,0.0089,0.0097,0.0101,0.0162,0.0172,0.0134,0.0137,0.022,0.0229,0.0237,0.0252,0.0274,0.0277,0.0279,0.0344,0.0344,0.0343,0,0,0,0,0,0,-0.0,0.0004,0.0053,0.0039,0.0047,0.0089,0.0094,0.0102,0.0116,0.0169,0.0179,0.014,0.0221,0.0232,0.0262,0.0256,0.0279,0.0282,0.0344,0.0344,0.0344,0.0281,0,0,0,0,0,0,-0.0002,0.0003,-0.0002,0.0038,0.0047,0.0063,0.0094,0.0103,0.0119,0.0123,0.0177,0.0187,0.0223,0.0257,0.0265,0.0261,0.0285,0.0345,0.0344,0.0344,0.0284,0.0279,0.0275,0,0,0,0,0,-0.0004,-0.0015,-0.0002,0.0003,0.0041,0.0063,0.0069,0.0103,0.0118,0.0119,0.0158,0.0186,0.026,0.0259,0.027,0.0266,0.0345,0.0344,0.0344,0.0286,0.028,0.0275,0,0,0,0,0,0,-0.0043,-0.001,0.0005,0.0004,0.0029,0.0071,0.0073,0.0097,0.0128,0.0132,0.0184,0.0196,0.0219,0.025,0.0248,0.0284,0.0306,0.0308,0.0259,0.0253,0.0249,0.0239,0.0287,0,0,0,0,0,-0.0054,-0.0052,-0.0016,-0.0018,-0.0008,0.0031,0.0043,0.0066,0.0099,0.0114,0.0152,0.0192,0.0224,0.0244,0.0276,0.0296,0.0334,0.03,0.0296,0.0292,0.0291,0.0337,0.0336,0.0341,0.0341,0.0341,0,0,-0.007,-0.0052,-0.0051,-0.0026,-0.0004,0.0,0.004,0.0053,0.006,0.0119,0.0138,0.0176,0.0225,0.0247,0.0261,0.0274,0.0311,0.0291,0.0287,0.0289,0.0336,0.0336,0.0335,0.0341,0.0341,0.0341,0,0,-0.0106,-0.0086,-0.0097,-0.008,-0.0054,-0.0027,-0.0027,0.0013,0.0034,0.0057,0.01,0.0135,0.0182,0.0219,0.0243,0.0233,0.0283,0.0241,0.0214,0.0258,0.0258,0.0259,0.0309,0.0315,0.0241,0.0241,0.0241,0,-0.0128,-0.0135,-0.0098,-0.0105,-0.0097,-0.0044,-0.0055,-0.0026,0.0018,0.0035,0.0053,0.013,0.017,0.0206,0.0203,0.0223,0.0258,0.0229,0.0252,0.0253,0.0255,0.0307,0.0313,0.0238,0.0238,0.0239,0.0239,0,-0.017,-0.0175,-0.0182,-0.017,-0.0156,-0.0157,-0.0113,-0.0094,-0.0061,-0.0026,0.0015,0.0074,0.0121,0.0138,0.0169,0.0198,0.0223,0.0238,0.0263,0.025,0.0306,0.0314,0.0233,0.0235,0.0236,0.0236,0,0,-0.022,-0.0215,-0.0217,-0.0224,-0.0191,-0.0184,-0.0169,-0.0138,-0.0124,-0.0073,-0.0049,0.0011,0.0051,0.0081,0.0127,0.017,0.0212,0.0203,0.0207,0.0249,0.0316,0.0361,0.0375,0.023,0.023,0.0231,0.0352,0,-0.0266,-0.0302,-0.0277,-0.03,-0.0314,-0.026,-0.0249,-0.021,-0.0164,-0.0126,-0.0054,-0.0013,0.0027,0.0053,0.0098,0.0184,0.0231,0.0179,0.0327,0.0331,0.0369,0.0385,0.0408,0.0519,0.036,0.0362,0.0363,0,-0.0316,-0.0333,-0.0373,-0.0367,-0.0366,-0.0365,-0.033,-0.0312,-0.024,-0.0202,-0.0143,-0.0079,-0.0006,0.0028,0.0166,0.013,0.0214,0.0284,0.0291,0.036,0.0391,0.0507,0.0541,0.0663,0.0376,0.0375,0.0374,0,-0.0379,-0.0396,-0.0432,-0.0432,-0.0417,-0.0416,-0.0398,-0.0339,-0.0317,-0.0244,-0.0213,-0.012,-0.006,0.0044,0.0192,0.0178,0.0354,0.0354,0.0476,0.0481,0.0544,0.0553,0.0711,0.045,0.045,0.045,0.0449,0,-0.0442,-0.0466,-0.0465,-0.0487,-0.0512,-0.0476,-0.0477,-0.0441,-0.0384,-0.0347,-0.0258,-0.02,-0.0053,0.007,0.0186,0.0366,0.0352,0.0481,0.0517,0.0524,0.0529,0.0673,0.071,0.0454,0.0453,0.0452,0.0452,0,-0.0507,-0.0508,-0.0546,-0.0548,-0.0546,-0.0562,-0.0533,-0.0508,-0.0464,-0.0411,-0.0388,-0.025,-0.0084,0.0077,0.0272,0.0371,0.0612,0.0596,0.06,0.0634,0.084,0.0871,0.1062,0.1136,0.074,0.0742,0.0744,0,-0.0545,-0.0576,-0.0599,-0.0596,-0.0595,-0.0605,-0.0584,-0.0553,-0.0521,-0.0429,-0.0394,-0.0235,-0.0092,0.0207,0.0409,0.0631,0.0717,0.0779,0.0753,0.0869,0.093,0.095,0.0998,0.0819,0.0821,0.0822,0.0824,0,-0.0611,-0.0617,-0.0642,-0.0635,-0.0625,-0.0612,-0.059,-0.0588,-0.0525,-0.0485,-0.0368,-0.0254,0.0028,0.0298,0.0578,0.0706,0.0865,0.082,0.0943,0.1012,0.1041,0.1122,0.0724,0.0839,0.0837,0.0836,0.0835,0.0835,-0.064,-0.0667,-0.0667,-0.0649,-0.0625,-0.0568,-0.0556,-0.0509,-0.0466,-0.0348,-0.0314,-0.0088,0.0214,0.0615,0.0757,0.1053,0.1012,0.1137,0.1169,0.1182,0.1244,0.0881,0.1028,0.1027,0.1027,0.1027,0.1026,0,-0.0637,-0.0652,-0.0653,-0.0618,-0.0562,-0.0553,-0.0503,-0.0458,-0.038,-0.0245,-0.0135,0.0247,0.0576,0.0871,0.1236,0.1395,0.1417,0.1471,0.1505,0.1541,0.1234,0.1228,0.1421,0.142,0.142,0.142,0.142,0.142,-0.0627,-0.0627,-0.0619,-0.0533,-0.0504,-0.0437,-0.0403,-0.0318,-0.0211,0.0053,0.0299,0.0467,0.0824,0.1349,0.1691,0.1719,0.1851,0.1831,0.191,0.1691,0.1662,0.1634,0.164,0.1916,0.1916,0.2207,0.221,0.2212]}],[{"header":{"parameterUnit":"m.s-1","parameterCategory":2,"la1":30.2991,"la2":30.254,"lo1":-89.0895,"lo2":-89.0444,"dy":0.0017,"dx":0.0017,"nx":28,"ny":28,"refTime":"2025-07-26T03:00:00:Z","depth":"2","parameterNumber":2,"parameterNumberName":"U-component_of_CURRENTS"},"data":[0,0,0,0,0,0,0,0,0,0,0,0,0,0,0,0,0,0,0,0,0,0,0,0,0,0,0,0,0,0,0,0,0,0,0,0,0,0,0,0,0,0,0,0,0,0,0,0,0,0,0,0,0,0,0,0,0,0,-0.1867,-0.1868,0,-0.1891,-0.1891,-0.1891,-0.1871,-0.187,-0.187,-0.1869,-0.1851,-0.1851,-0.1851,0,0,0,0,0,0,0,0,0,0,0,0,0,-0.1798,-0.1799,-0.1867,-0.1868,-0.1868,-0.1891,-0.1891,-0.1891,-0.1871,-0.187,-0.187,-0.1869,-0.1851,-0.1851,-0.1851,0,0,0,0,0,0,0,0,0,0,0,0,0,-0.1823,-0.1799,-0.1867,-0.1863,-0.1863,-0.1891,-0.1891,-0.1891,-0.1871,-0.187,-0.1869,-0.1869,-0.1851,-0.1851,-0.1851,-0.1871,0,0,-0.1851,-0.1852,0,0,0,0,0,0,0,0,-0.1822,-0.1825,-0.1863,-0.1863,-0.1863,-0.1879,-0.186,-0.1883,-0.1872,-0.1866,-0.1869,-0.1868,-0.1858,-0.1858,-0.1862,-0.187,-0.187,-0.1851,-0.1852,-0.1852,-0.1852,0,0,0,0,0,0,0,-0.182,-0.1824,-0.1875,-0.1863,-0.1864,-0.1857,-0.1859,-0.1864,-0.1865,-0.1866,-0.1865,-0.1872,-0.1858,-0.1862,-0.1861,-0.1869,-0.1851,-0.1852,-0.1852,-0.1852,-0.1899,-0.19,0,0,0,0,0,0,-0.1823,-0.1823,-0.1874,-0.1875,-0.1842,-0.1859,-0.1862,-0.1873,-0.1866,-0.1865,-0.1873,-0.1871,-0.1862,-0.1861,-0.1861,-0.1889,-0.1852,-0.1852,-0.1852,-0.1898,-0.1899,-0.19,0,0,0,0,0,0,-0.1822,-0.1828,-0.1873,-0.1851,-0.1856,-0.1862,-0.1874,-0.1874,-0.1879,-0.1871,-0.1869,-0.1878,-0.1861,-0.186,-0.1872,-0.1888,-0.1852,-0.1852,-0.1896,-0.1898,-0.19,-0.1943,0,0,0,0,0,0,-0.182,-0.1827,-0.1834,-0.1851,-0.1858,-0.1896,-0.1876,-0.1875,-0.1886,-0.1883,-0.1875,-0.1872,-0.1861,-0.1871,-0.1872,-0.1887,-0.1852,-0.1895,-0.1897,-0.1899,-0.194,-0.1946,-0.1951,0,0,0,0,0,-0.1817,-0.1833,-0.1835,-0.1841,-0.1868,-0.1897,-0.19,-0.1898,-0.1887,-0.1897,-0.1891,-0.1873,-0.1885,-0.1873,-0.1873,-0.1889,-0.1894,-0.1897,-0.1899,-0.1938,-0.1945,-0.1951,0,0,0,0,0,0,-0.1805,-0.1834,-0.1835,-0.1858,-0.1879,-0.1894,-0.1903,-0.1904,-0.1909,-0.1903,-0.1889,-0.1887,-0.1903,-0.1894,-0.1881,-0.191,-0.1886,-0.1889,-0.1916,-0.1922,-0.1928,-0.1925,-0.1852,0,0,0,0,0,-0.1808,-0.1825,-0.1853,-0.1869,-0.1881,-0.1893,-0.1903,-0.1907,-0.1916,-0.1916,-0.1912,-0.1909,-0.1916,-0.1916,-0.192,-0.1937,-0.1921,-0.1948,-0.1953,-0.1958,-0.1957,-0.1951,-0.1956,-0.1909,-0.1909,-0.1909,0,0,-0.1806,-0.1824,-0.1833,-0.1868,-0.1879,-0.1908,-0.1896,-0.1918,-0.1938,-0.1914,-0.1933,-0.1929,-0.1926,-0.1944,-0.1951,-0.1937,-0.1965,-0.1961,-0.1965,-0.1961,-0.1954,-0.1959,-0.1963,-0.1911,-0.191,-0.191,0,0,-0.1817,-0.183,-0.1851,-0.1875,-0.1905,-0.1918,-0.1927,-0.1951,-0.1955,-0.198,-0.1967,-0.1973,-0.1984,-0.1983,-0.1985,-0.2024,-0.1995,-0.2027,-0.2049,-0.2045,-0.2048,-0.2051,-0.204,-0.2042,-0.2027,-0.2027,-0.2027,0,-0.1812,-0.1846,-0.1861,-0.1893,-0.1913,-0.1925,-0.1956,-0.1971,-0.1994,-0.1999,-0.199,-0.2007,-0.2002,-0.2023,-0.2035,-0.2035,-0.2024,-0.2023,-0.2051,-0.2053,-0.2055,-0.2043,-0.2044,-0.203,-0.2029,-0.2029,-0.2029,0,-0.1843,-0.1873,-0.1889,-0.1931,-0.1956,-0.1984,-0.2013,-0.2031,-0.2036,-0.2046,-0.2066,-0.2063,-0.2067,-0.2074,-0.2066,-0.2084,-0.2069,-0.2059,-0.2031,-0.2062,-0.2048,-0.2048,-0.2033,-0.2032,-0.2032,-0.2031,0,0,-0.1821,-0.1896,-0.1899,-0.1927,-0.1978,-0.1999,-0.2039,-0.2073,-0.2089,-0.2105,-0.2119,-0.2136,-0.2123,-0.2124,-0.2117,-0.2115,-0.2123,-0.2095,-0.2093,-0.2078,-0.2108,-0.2046,-0.204,-0.2115,-0.2115,-0.2115,-0.2093,0,-0.1837,-0.19,-0.1935,-0.1987,-0.202,-0.205,-0.2084,-0.2114,-0.2129,-0.2146,-0.2146,-0.2156,-0.2147,-0.2145,-0.2146,-0.2128,-0.2125,-0.2129,-0.2084,-0.2083,-0.2019,-0.2039,-0.1882,-0.1844,-0.2093,-0.2093,-0.2093,0,-0.1847,-0.1892,-0.1949,-0.2016,-0.2032,-0.2063,-0.2107,-0.214,-0.217,-0.218,-0.219,-0.2185,-0.2191,-0.2173,-0.216,-0.2163,-0.2139,-0.2124,-0.2122,-0.2047,-0.2021,-0.1853,-0.1835,-0.2093,-0.2093,-0.2093,-0.2093,0,-0.1811,-0.1894,-0.1937,-0.1962,-0.2042,-0.2065,-0.21,-0.2142,-0.2165,-0.2193,-0.2204,-0.2211,-0.2208,-0.2189,-0.2159,-0.2159,-0.2133,-0.2127,-0.2052,-0.2047,-0.1895,-0.1876,-0.2114,-0.2114,-0.2114,-0.2115,-0.2115,0,-0.1808,-0.1839,-0.1923,-0.1947,-0.1989,-0.2048,-0.2085,-0.2121,-0.2164,-0.2177,-0.221,-0.2211,-0.2211,-0.2195,-0.2165,-0.2104,-0.2137,-0.2054,-0.2037,-0.1906,-0.189,-0.2089,-0.2087,-0.2114,-0.2114,-0.2114,-0.2114,0,-0.1755,-0.1816,-0.1865,-0.1951,-0.1973,-0.1998,-0.2071,-0.2087,-0.2148,-0.2165,-0.2172,-0.2209,-0.2186,-0.2177,-0.2142,-0.2104,-0.2057,-0.2028,-0.1873,-0.1837,-0.1974,-0.1975,-0.1942,-0.194,-0.1938,-0.1936,-0.1935,0,-0.1732,-0.1754,-0.1844,-0.1855,-0.189,-0.1941,-0.1964,-0.2055,-0.2073,-0.2147,-0.2137,-0.2153,-0.2113,-0.2059,-0.1996,-0.193,-0.1998,-0.1763,-0.1736,-0.197,-0.1957,-0.196,-0.1963,-0.1552,-0.1548,-0.1544,-0.1541,0,-0.1671,-0.1702,-0.1734,-0.1757,-0.1786,-0.1844,-0.1889,-0.1909,-0.1998,-0.2021,-0.2024,-0.2004,-0.1968,-0.1825,-0.1769,-0.1713,-0.1762,-0.1687,-0.196,-0.1626,-0.1602,-0.159,-0.1605,-0.1509,-0.1512,-0.1515,-0.1517,-0.1518,-0.1596,-0.1592,-0.1611,-0.1623,-0.1669,-0.1705,-0.1702,-0.1759,-0.178,-0.1782,-0.1843,-0.1763,-0.1751,-0.1566,-0.1491,-0.1439,-0.1558,-0.1488,-0.15,-0.1515,-0.1479,-0.1453,-0.1326,-0.1328,-0.133,-0.1331,-0.1333,0,-0.1475,-0.1467,-0.1463,-0.1475,-0.1471,-0.1556,-0.1606,-0.1575,-0.1552,-0.1576,-0.1555,-0.1379,-0.1289,-0.1285,-0.1149,-0.1131,-0.112,-0.109,-0.1073,-0.1105,-0.1134,-0.1079,-0.082,-0.0818,-0.0817,-0.0816,0,0,-0.1401,-0.1339,-0.133,-0.1259,-0.1279,-0.125,-0.1263,-0.1248,-0.1241,-0.1177,-0.1133,-0.1211,-0.1226,-0.1018,-0.0978,-0.0873,-0.0977,-0.0828,-0.1237,-0.1246,-0.1273,-0.1357,-0.1309,0,0,0,0,0]},{"header":{"parameterUnit":"m.s-1","parameterCategory":2,"la1":30.2991,"la2":30.254,"lo1":-89.0895,"lo2":-89.0444,"dy":0.0017,"dx":0.0017,"nx":28,"ny":28,"refTime":"2025-07-26T03:00:00:Z","depth":"2","parameterNumber":3,"parameterNumberName":"V-component_of_CURRENTS"},"data":[0,0,0,0,0,0,0,0,0,0,0,0,0,0,0,0,0,0,0,0,0,0,0,0,0,0,0,0,0,0,0,0,0,0,0,0,0,0,0,0,0,0,0,0,0,0,0,0,0,0,0,0,0,0,0,0,0,0,-0.0115,-0.0114,0,-0.0051,-0.005,-0.0049,-0.0002,-0.0002,-0.0002,-0.0001,0.0092,0.0094,0.0097,0,0,0,0,0,0,0,0,0,0,0,0,0,-0.0164,-0.0164,-0.0115,-0.0114,-0.0114,-0.0051,-0.005,-0.0049,-0.0002,-0.0002,-0.0002,-0.0001,0.0092,0.0094,0.0097,0,0,0,0,0,0,0,0,0,0,0,0,0,-0.0125,-0.0163,-0.0115,-0.0083,-0.008,-0.0051,-0.005,-0.0049,-0.0003,-0.0002,-0.0002,-0.0001,0.0091,0.0094,0.0097,0.0108,0,0,0.0107,0.0109,0,0,0,0,0,0,0,0,-0.0127,-0.0123,-0.0089,-0.0086,-0.0082,-0.0035,-0.0033,0.0005,-0.0003,-0.0031,-0.0001,-0.0001,0.0052,0.0058,0.007,0.0112,0.0116,0.0108,0.011,0.0111,0.0112,0,0,0,0,0,0,0,-0.013,-0.0126,-0.0089,-0.0088,-0.0084,-0.0061,-0.0055,-0.0025,0.0008,-0.0029,-0.0025,-0.0019,0.0054,0.0067,0.0073,0.0117,0.0107,0.011,0.0112,0.0114,0.0186,0.0186,0,0,0,0,0,0,-0.0142,-0.0128,-0.0091,-0.0087,-0.0105,-0.0061,-0.0054,-0.005,0.0007,0.0016,-0.002,-0.0018,0.0061,0.0069,0.0076,0.0096,0.0111,0.0114,0.0116,0.0186,0.0186,0.0186,0,0,0,0,0,0,-0.0143,-0.0139,-0.0094,-0.0107,-0.0099,-0.0061,-0.0056,-0.0049,-0.0035,0.0013,0.0023,-0.0014,0.0061,0.0071,0.0102,0.01,0.0116,0.0118,0.0186,0.0186,0.0186,0.0134,0,0,0,0,0,0,-0.0145,-0.014,-0.0143,-0.0108,-0.0099,-0.0083,-0.0056,-0.0048,-0.0033,-0.0029,0.0022,0.0031,0.0063,0.0097,0.0106,0.0105,0.0121,0.0186,0.0186,0.0186,0.0136,0.0132,0.0129,0,0,0,0,0,-0.0147,-0.0156,-0.0144,-0.0139,-0.0104,-0.0083,-0.0077,-0.0047,-0.0033,-0.0032,0.0005,0.0029,0.0103,0.01,0.011,0.011,0.0186,0.0186,0.0186,0.0137,0.0133,0.0129,0,0,0,0,0,0,-0.018,-0.0151,-0.0137,-0.0137,-0.0114,-0.0076,-0.0073,-0.0051,-0.0022,-0.0017,0.003,0.0041,0.0067,0.0095,0.0091,0.0131,0.0148,0.015,0.0108,0.0104,0.0101,0.0091,0.0124,0,0,0,0,0,-0.019,-0.0188,-0.0155,-0.0155,-0.0146,-0.011,-0.0099,-0.0078,-0.0047,-0.0033,0.0003,0.0041,0.0073,0.0093,0.0124,0.0146,0.018,0.0153,0.015,0.0147,0.0146,0.0192,0.0192,0.0185,0.0185,0.0185,0,0,-0.0203,-0.0187,-0.0186,-0.0162,-0.0142,-0.0136,-0.0102,-0.0089,-0.008,-0.0028,-0.0006,0.0029,0.0076,0.01,0.0115,0.0125,0.0166,0.0147,0.0143,0.0144,0.0192,0.0192,0.0193,0.0185,0.0185,0.0185,0,0,-0.0233,-0.0215,-0.0224,-0.0208,-0.0184,-0.0159,-0.0158,-0.0121,-0.0101,-0.0076,-0.0037,-0.0002,0.0045,0.0081,0.0105,0.0102,0.0144,0.0109,0.0089,0.0133,0.0134,0.0136,0.0176,0.0181,0.0111,0.0111,0.0111,0,-0.0252,-0.0257,-0.0224,-0.0228,-0.0219,-0.0173,-0.0179,-0.0152,-0.011,-0.0092,-0.0078,-0.0,0.0037,0.0077,0.0076,0.0095,0.0125,0.0099,0.0129,0.0131,0.0133,0.0174,0.0181,0.0108,0.0108,0.0109,0.0109,0,-0.0287,-0.0289,-0.0294,-0.0281,-0.0267,-0.0265,-0.0224,-0.0205,-0.0174,-0.0141,-0.0097,-0.0042,0.0005,0.0022,0.0049,0.0083,0.01,0.0115,0.0136,0.013,0.0174,0.0182,0.0105,0.0106,0.0106,0.0107,0,0,-0.0332,-0.0322,-0.0323,-0.0327,-0.0295,-0.0288,-0.0269,-0.0236,-0.022,-0.0171,-0.0145,-0.0085,-0.005,-0.0021,0.0022,0.0064,0.0104,0.0091,0.0094,0.0126,0.02,0.0225,0.0236,0.0124,0.0125,0.0126,0.0224,0,-0.037,-0.0398,-0.0372,-0.0389,-0.0398,-0.0348,-0.0334,-0.0295,-0.025,-0.0212,-0.0142,-0.0102,-0.0067,-0.0043,0.0002,0.0079,0.0122,0.0076,0.0206,0.021,0.0228,0.0245,0.0221,0.0307,0.0231,0.0233,0.0234,0,-0.0414,-0.0426,-0.0456,-0.0444,-0.0442,-0.0438,-0.0401,-0.0381,-0.031,-0.0273,-0.0215,-0.0156,-0.0085,-0.0057,0.007,0.0038,0.011,0.0172,0.0178,0.0225,0.0249,0.0302,0.0324,0.0247,0.0246,0.0245,0.0244,0,-0.0473,-0.048,-0.0508,-0.0506,-0.0486,-0.0482,-0.0463,-0.0404,-0.0382,-0.0309,-0.028,-0.0188,-0.0135,-0.0038,0.0089,0.008,0.0233,0.0239,0.0333,0.0335,0.0353,0.0355,0.0329,0.0329,0.0329,0.0329,0.0328,0,-0.0528,-0.0547,-0.054,-0.0558,-0.058,-0.0539,-0.0538,-0.0502,-0.0442,-0.0411,-0.0319,-0.0268,-0.0128,-0.002,0.0084,0.0236,0.0232,0.0336,0.0366,0.0334,0.0334,0.0311,0.0307,0.0332,0.0332,0.0331,0.033,0,-0.0592,-0.0587,-0.0621,-0.0615,-0.0614,-0.0631,-0.0599,-0.0591,-0.0524,-0.0478,-0.0455,-0.0321,-0.0174,-0.0028,0.0147,0.0234,0.0373,0.0427,0.0379,0.0402,0.0444,0.0437,0.0537,0.0539,0.054,0.0541,0.0542,0,-0.0629,-0.0656,-0.0678,-0.0704,-0.0705,-0.0713,-0.0714,-0.0649,-0.0626,-0.0503,-0.0483,-0.0329,-0.0204,0.006,0.0238,0.0431,0.0427,0.0516,0.0497,0.0448,0.0467,0.0458,0.0449,0.0501,0.0501,0.0502,0.0502,0,-0.0698,-0.0706,-0.0735,-0.0802,-0.0821,-0.0838,-0.0825,-0.0817,-0.0721,-0.0634,-0.0506,-0.0391,-0.0124,0.0096,0.034,0.0445,0.048,0.0533,0.0511,0.0446,0.0421,0.0437,0.0428,0.0507,0.0506,0.0506,0.0506,0.0506,-0.0745,-0.0788,-0.0839,-0.09,-0.0938,-0.0978,-0.0982,-0.0936,-0.0877,-0.0735,-0.0553,-0.0332,-0.0112,0.024,0.0408,0.0552,0.0552,0.0586,0.0582,0.0578,0.0551,0.0529,0.063,0.063,0.063,0.0631,0.0631,0,-0.0809,-0.0854,-0.093,-0.1005,-0.1071,-0.1063,-0.1063,-0.1038,-0.0966,-0.0764,-0.057,-0.026,0.0017,0.023,0.047,0.0619,0.0595,0.0631,0.0573,0.0568,0.0564,0.0534,0.061,0.061,0.0611,0.0611,0,0,-0.0843,-0.0933,-0.098,-0.1113,-0.1159,-0.1213,-0.1213,-0.1149,-0.1016,-0.0817,-0.0589,-0.028,0.0015,0.0186,0.0373,0.0491,0.0479,0.0494,0.0496,0.0399,0.0392,0.0528,0.0475,0,0,0,0,0]}],[{"header":{"parameterUnit":"m.s-1","parameterCategory":2,"la1":30.2991,"la2":30.254,"lo1":-89.0895,"lo2":-89.0444,"dy":0.0017,"dx":0.0017,"nx":28,"ny":28,"refTime":"2025-07-26T03:00:00:Z","depth":"4","parameterNumber":2,"parameterNumberName":"U-component_of_CURRENTS"},"data":[0,0,0,0,0,0,0,0,0,0,0,0,0,0,0,0,0,0,0,0,0,0,0,0,0,0,0,0,0,0,0,0,0,0,0,0,0,0,0,0,0,0,0,0,0,0,0,0,0,0,0,0,0,0,0,0,0,0,-0.1347,-0.1348,0,-0.14,-0.1401,-0.1401,-0.143,-0.143,-0.143,-0.143,-0.1473,-0.1474,-0.1475,0,0,0,0,0,0,0,0,0,0,0,0,0,-0.1269,-0.127,-0.1347,-0.1348,-0.1348,-0.14,-0.1401,-0.1402,-0.143,-0.143,-0.143,-0.143,-0.1473,-0.1474,-0.1475,0,0,0,0,0,0,0,0,0,0,0,0,0,-0.1309,-0.1271,-0.1347,-0.137,-0.1372,-0.14,-0.1401,-0.1402,-0.143,-0.143,-0.143,-0.143,-0.1473,-0.1474,-0.1476,-0.1479,0,0,-0.148,-0.1481,0,0,0,0,0,0,0,0,-0.1307,-0.1312,-0.1366,-0.1368,-0.1371,-0.141,-0.139,-0.1428,-0.143,-0.1406,-0.143,-0.143,-0.1452,-0.1455,-0.1463,-0.1481,-0.1483,-0.148,-0.1481,-0.1482,-0.1482,0,0,0,0,0,0,0,-0.1304,-0.131,-0.1367,-0.1366,-0.137,-0.1378,-0.1383,-0.1397,-0.1426,-0.1408,-0.1411,-0.1419,-0.1453,-0.1461,-0.1464,-0.1484,-0.148,-0.1482,-0.1482,-0.1483,-0.1572,-0.1573,0,0,0,0,0,0,-0.13,-0.1307,-0.1365,-0.1368,-0.1341,-0.1379,-0.1385,-0.1396,-0.1426,-0.1431,-0.1419,-0.142,-0.1459,-0.1462,-0.1466,-0.1532,-0.1482,-0.1483,-0.1484,-0.1571,-0.1572,-0.1574,0,0,0,0,0,0,-0.1299,-0.1305,-0.1363,-0.134,-0.1348,-0.138,-0.1392,-0.1397,-0.1428,-0.1434,-0.1439,-0.1447,-0.1459,-0.1464,-0.1502,-0.1531,-0.1484,-0.1485,-0.1569,-0.1571,-0.1573,-0.1626,0,0,0,0,0,0,-0.1296,-0.1304,-0.1322,-0.134,-0.1349,-0.1397,-0.1392,-0.1398,-0.1432,-0.1435,-0.146,-0.1463,-0.146,-0.15,-0.1504,-0.1533,-0.1486,-0.1567,-0.157,-0.1572,-0.1622,-0.163,-0.1636,0,0,0,0,0,-0.1293,-0.1313,-0.1322,-0.133,-0.1369,-0.1398,-0.1404,-0.1426,-0.1433,-0.1454,-0.1473,-0.1463,-0.152,-0.1503,-0.1507,-0.1536,-0.1566,-0.1569,-0.1572,-0.1619,-0.1628,-0.1636,0,0,0,0,0,0,-0.1291,-0.1319,-0.1329,-0.1358,-0.1384,-0.1404,-0.1427,-0.1441,-0.1472,-0.1481,-0.1483,-0.1488,-0.1532,-0.1529,-0.151,-0.1571,-0.1541,-0.1545,-0.1576,-0.1584,-0.1591,-0.1586,-0.1488,0,0,0,0,0,-0.1298,-0.132,-0.1346,-0.1372,-0.1387,-0.1412,-0.1431,-0.1448,-0.1472,-0.1487,-0.1505,-0.1525,-0.1545,-0.1561,-0.1577,-0.1611,-0.1594,-0.1633,-0.164,-0.1646,-0.1645,-0.1648,-0.1654,-0.1585,-0.1585,-0.1585,0,0,-0.1305,-0.1323,-0.1337,-0.1374,-0.1395,-0.1427,-0.1424,-0.1462,-0.1494,-0.1486,-0.1541,-0.1552,-0.1561,-0.16,-0.1619,-0.1603,-0.1657,-0.165,-0.1655,-0.1651,-0.1652,-0.1658,-0.1664,-0.1587,-0.1587,-0.1586,0,0,-0.1322,-0.1347,-0.137,-0.1397,-0.1436,-0.1453,-0.147,-0.1506,-0.1531,-0.1579,-0.1581,-0.1611,-0.1647,-0.1657,-0.1665,-0.1719,-0.1694,-0.173,-0.1761,-0.1764,-0.1769,-0.1774,-0.1759,-0.1762,-0.1733,-0.1733,-0.1733,0,-0.1332,-0.1364,-0.1383,-0.1415,-0.1441,-0.1468,-0.1503,-0.1533,-0.158,-0.16,-0.1606,-0.1662,-0.1672,-0.171,-0.1731,-0.1734,-0.1725,-0.1728,-0.1772,-0.1776,-0.1779,-0.1763,-0.1765,-0.1736,-0.1735,-0.1735,-0.1735,0,-0.136,-0.1398,-0.1416,-0.1463,-0.1494,-0.1531,-0.157,-0.1609,-0.1641,-0.1663,-0.1717,-0.1733,-0.176,-0.1774,-0.1771,-0.1808,-0.1788,-0.1779,-0.1747,-0.1789,-0.177,-0.1771,-0.174,-0.1739,-0.1738,-0.1737,0,0,-0.1347,-0.1422,-0.1431,-0.1463,-0.1525,-0.1551,-0.1609,-0.166,-0.1695,-0.1742,-0.178,-0.1824,-0.1827,-0.1836,-0.1839,-0.1847,-0.1866,-0.1829,-0.1828,-0.1807,-0.1862,-0.174,-0.1729,-0.1866,-0.1866,-0.1867,-0.1837,0,-0.1365,-0.1428,-0.1463,-0.153,-0.1564,-0.1611,-0.1659,-0.1709,-0.1749,-0.1792,-0.1816,-0.1853,-0.1853,-0.1868,-0.1879,-0.187,-0.1873,-0.1874,-0.183,-0.1829,-0.1709,-0.1728,-0.1869,-0.1838,-0.1838,-0.1838,-0.1838,0,-0.1374,-0.1418,-0.1485,-0.1563,-0.1583,-0.1628,-0.1701,-0.1748,-0.1808,-0.1838,-0.1876,-0.1889,-0.1918,-0.1907,-0.1911,-0.1913,-0.1894,-0.1882,-0.188,-0.1746,-0.1708,-0.1788,-0.184,-0.184,-0.184,-0.184,-0.184,0,-0.134,-0.1429,-0.1483,-0.1512,-0.1604,-0.1645,-0.1695,-0.1763,-0.1802,-0.1864,-0.189,-0.1923,-0.1939,-0.1933,-0.191,-0.1916,-0.1896,-0.1895,-0.1766,-0.1757,-0.1853,-0.1848,-0.1892,-0.1892,-0.1892,-0.1892,-0.1893,0,-0.1328,-0.1375,-0.1477,-0.1506,-0.1568,-0.1638,-0.1704,-0.1753,-0.1823,-0.1853,-0.1908,-0.1919,-0.1948,-0.1939,-0.1916,-0.1832,-0.1897,-0.1765,-0.174,-0.1876,-0.1875,-0.1853,-0.1849,-0.1891,-0.1892,-0.1892,-0.1892,0,-0.1274,-0.1346,-0.1411,-0.1518,-0.1553,-0.1596,-0.1702,-0.1731,-0.1817,-0.1855,-0.1874,-0.1922,-0.1899,-0.1902,-0.188,-0.182,-0.1764,-0.172,-0.1854,-0.1838,-0.1624,-0.1624,-0.1571,-0.1567,-0.1563,-0.1559,-0.1557,0,-0.1249,-0.128,-0.14,-0.1421,-0.1472,-0.1552,-0.159,-0.1707,-0.1736,-0.1832,-0.1825,-0.1848,-0.1858,-0.1717,-0.1743,-0.1677,-0.166,-0.1625,-0.1635,-0.161,-0.1592,-0.1597,-0.1601,-0.155,-0.1549,-0.1548,-0.1547,0,-0.1186,-0.1241,-0.1282,-0.133,-0.138,-0.1446,-0.1518,-0.1538,-0.1652,-0.1752,-0.1719,-0.1694,-0.1662,-0.1624,-0.1579,-0.1539,-0.1645,-0.1584,-0.1592,-0.1602,-0.1584,-0.1571,-0.158,-0.1534,-0.1536,-0.1537,-0.1538,0,-0.1124,-0.1128,-0.1174,-0.1202,-0.1264,-0.1295,-0.1372,-0.14,-0.1457,-0.1579,-0.156,-0.1582,-0.1638,-0.1551,-0.1511,-0.1457,-0.144,-0.1397,-0.1415,-0.143,-0.1397,-0.1354,-0.1204,0,0,0,0,0,-0.1048,-0.1021,-0.1032,-0.1061,-0.112,-0.1162,-0.1282,-0.1363,-0.1497,-0.1428,-0.1494,-0.1454,-0.1398,-0.1412,-0.1322,-0.1447,-0.1445,-0.1338,-0.1407,-0.1459,-0.1475,-0.1448,0,0,0,0,0,0,-0.0983,-0.0986,-0.098,-0.093,-0.0924,-0.0988,-0.1067,-0.1171,-0.1155,-0.1284,-0.1253,-0.1349,-0.1306,-0.1401,-0.1277,-0.1283,-0.1295,-0.1368,-0.1364,-0.145,-0.1464,-0.1477,-0.1455,0,0,0,0,0]},{"header":{"parameterUnit":"m.s-1","parameterCategory":2,"la1":30.2991,"la2":30.254,"lo1":-89.0895,"lo2":-89.0444,"dy":0.0017,"dx":0.0017,"nx":28,"ny":28,"refTime":"2025-07-26T03:00:00:Z","depth":"4","parameterNumber":3,"parameterNumberName":"V-component_of_CURRENTS"},"data":[0,0,0,0,0,0,0,0,0,0,0,0,0,0,0,0,0,0,0,0,0,0,0,0,0,0,0,0,0,0,0,0,0,0,0,0,0,0,0,0,0,0,0,0,0,0,0,0,0,0,0,0,0,0,0,0,0,0,-0.0126,-0.0126,0,-0.0081,-0.008,-0.008,-0.0049,-0.0049,-0.0049,-0.0049,0.0028,0.003,0.0032,0,0,0,0,0,0,0,0,0,0,0,0,0,-0.0159,-0.0159,-0.0126,-0.0126,-0.0125,-0.0081,-0.008,-0.008,-0.0049,-0.0049,-0.0049,-0.0049,0.0028,0.003,0.0032,0,0,0,0,0,0,0,0,0,0,0,0,0,-0.0132,-0.0159,-0.0127,-0.0105,-0.0103,-0.0081,-0.008,-0.0079,-0.0049,-0.0049,-0.0049,-0.0048,0.0027,0.003,0.0032,0.0046,0,0,0.0041,0.0042,0,0,0,0,0,0,0,0,-0.0134,-0.0131,-0.0109,-0.0107,-0.0104,-0.0071,-0.0064,-0.0036,-0.0049,-0.0069,-0.0049,-0.0048,-0.0003,0.0002,0.0011,0.005,0.0053,0.0041,0.0043,0.0044,0.0045,0,0,0,0,0,0,0,-0.0136,-0.0132,-0.0108,-0.0109,-0.0106,-0.0089,-0.0085,-0.0058,-0.0036,-0.0067,-0.0065,-0.0061,-0.0001,0.0008,0.0013,0.0054,0.0041,0.0044,0.0046,0.0047,0.0118,0.0118,0,0,0,0,0,0,-0.0144,-0.0134,-0.0109,-0.0106,-0.012,-0.0089,-0.0084,-0.0081,-0.0037,-0.0031,-0.0061,-0.006,0.0003,0.001,0.0016,0.0038,0.0044,0.0047,0.0049,0.0117,0.0118,0.0118,0,0,0,0,0,0,-0.0145,-0.0143,-0.0111,-0.012,-0.0115,-0.0089,-0.0085,-0.0081,-0.0071,-0.0033,-0.0026,-0.0058,0.0004,0.0012,0.004,0.0041,0.0048,0.0051,0.0117,0.0118,0.0118,0.008,0,0,0,0,0,0,-0.0147,-0.0143,-0.0147,-0.0121,-0.0115,-0.0103,-0.0086,-0.008,-0.007,-0.0067,-0.0028,-0.002,0.0005,0.0035,0.0043,0.0045,0.0053,0.0117,0.0117,0.0118,0.0081,0.0078,0.0077,0,0,0,0,0,-0.0148,-0.0154,-0.0147,-0.0144,-0.0119,-0.0103,-0.0099,-0.0079,-0.007,-0.0069,-0.004,-0.0022,0.0042,0.0038,0.0046,0.005,0.0117,0.0117,0.0118,0.0082,0.0079,0.0077,0,0,0,0,0,0,-0.017,-0.0151,-0.0143,-0.0143,-0.0127,-0.0099,-0.0097,-0.0082,-0.0059,-0.0056,-0.0019,-0.001,0.0014,0.0038,0.0032,0.0071,0.0083,0.0085,0.0052,0.005,0.0048,0.0039,0.0056,0,0,0,0,0,-0.0178,-0.0177,-0.0154,-0.0155,-0.0149,-0.0124,-0.0116,-0.0102,-0.0077,-0.0067,-0.0039,-0.0007,0.0022,0.004,0.0066,0.0089,0.0115,0.0097,0.0095,0.0093,0.0092,0.0136,0.0137,0.0119,0.0119,0.0119,0,0,-0.0187,-0.0177,-0.0177,-0.0161,-0.0147,-0.0142,-0.0119,-0.011,-0.0101,-0.0062,-0.0044,-0.0014,0.0026,0.005,0.0063,0.0071,0.0111,0.0094,0.0092,0.0092,0.0136,0.0138,0.014,0.0119,0.0119,0.0119,0,0,-0.0208,-0.0197,-0.0204,-0.0193,-0.0177,-0.0158,-0.0158,-0.0131,-0.0116,-0.0095,-0.0064,-0.0032,0.0007,0.004,0.0062,0.0066,0.0097,0.0072,0.0058,0.01,0.0102,0.0104,0.0133,0.0138,0.0074,0.0074,0.0074,0,-0.0222,-0.0225,-0.0204,-0.0206,-0.02,-0.0169,-0.0172,-0.0152,-0.0119,-0.0103,-0.0095,-0.0028,0.0005,0.0045,0.0045,0.0062,0.0084,0.0062,0.0097,0.01,0.0102,0.0132,0.0137,0.0072,0.0072,0.0073,0.0073,0,-0.0244,-0.0247,-0.025,-0.0242,-0.0231,-0.023,-0.02,-0.0186,-0.0163,-0.0137,-0.0099,-0.0053,-0.0012,0.0004,0.0026,0.0061,0.007,0.0086,0.0101,0.0102,0.0132,0.0139,0.007,0.007,0.0071,0.0071,0,0,-0.0276,-0.0268,-0.0271,-0.0274,-0.025,-0.0246,-0.0229,-0.0203,-0.019,-0.0151,-0.0128,-0.0074,-0.0048,-0.0022,0.0014,0.0052,0.0088,0.0071,0.0074,0.0094,0.0171,0.0148,0.0154,0.0109,0.011,0.0111,0.0182,0,-0.0302,-0.0321,-0.0302,-0.0314,-0.032,-0.0285,-0.0272,-0.0242,-0.0208,-0.0177,-0.0119,-0.0085,-0.0057,-0.0038,0.0004,0.0067,0.0105,0.0067,0.0172,0.0175,0.0151,0.0161,0.0115,0.0187,0.0189,0.019,0.0191,0,-0.0331,-0.034,-0.0362,-0.0353,-0.0351,-0.0351,-0.0324,-0.0306,-0.0249,-0.022,-0.0172,-0.0125,-0.0063,-0.0042,0.0067,0.0039,0.0098,0.0149,0.0153,0.015,0.0165,0.019,0.0204,0.0203,0.0202,0.0201,0.02,0,-0.0373,-0.0379,-0.0401,-0.0399,-0.0384,-0.0384,-0.0371,-0.0325,-0.0309,-0.0249,-0.0227,-0.0146,-0.0106,-0.0021,0.0078,0.0075,0.0196,0.0209,0.0247,0.0246,0.0261,0.0259,0.0288,0.0288,0.0288,0.0287,0.0287,0,-0.0407,-0.0425,-0.0427,-0.0441,-0.0465,-0.0431,-0.0437,-0.0408,-0.0361,-0.0339,-0.0259,-0.022,-0.0098,-0.0014,0.0073,0.0175,0.0196,0.0245,0.0265,0.0242,0.0237,0.0266,0.0262,0.029,0.0289,0.0289,0.0289,0,-0.0451,-0.0451,-0.0483,-0.0486,-0.0491,-0.051,-0.0497,-0.0496,-0.0437,-0.0406,-0.0388,-0.0272,-0.0159,-0.004,0.0107,0.0163,0.0267,0.03,0.0259,0.0275,0.0289,0.0283,0.0347,0.0347,0.0347,0.0347,0.0347,0,-0.0473,-0.0497,-0.0534,-0.0567,-0.0576,-0.0594,-0.0607,-0.0553,-0.0538,-0.0434,-0.0419,-0.0299,-0.0216,-0.0022,0.0097,0.0257,0.0279,0.0323,0.0313,0.0283,0.0297,0.0291,0.0285,0.0346,0.0346,0.0346,0.0346,0,-0.0519,-0.0539,-0.0569,-0.0642,-0.0677,-0.0706,-0.0707,-0.0696,-0.0615,-0.0558,-0.0429,-0.0306,-0.0178,-0.0025,0.0096,0.0212,0.0288,0.0323,0.0324,0.0315,0.0283,0.0295,0.029,0.0346,0.0346,0.0346,0.0346,0,-0.0557,-0.0597,-0.0648,-0.0705,-0.0765,-0.0801,-0.0791,-0.0738,-0.0697,-0.0548,-0.0506,-0.0334,-0.0217,-0.0048,0.0066,0.0172,0.0198,0.0225,0.0232,0.0233,0.0175,0.0117,0.0147,0,0,0,0,0,-0.0588,-0.0635,-0.0703,-0.0765,-0.0828,-0.0851,-0.085,-0.0817,-0.0722,-0.0637,-0.0558,-0.0423,-0.0213,-0.0114,-0.0012,0.0027,0.018,0.0145,0.0204,0.0343,0.0344,0.0292,0,0,0,0,0,0,-0.0612,-0.0679,-0.0709,-0.0803,-0.085,-0.0906,-0.0908,-0.0847,-0.0773,-0.0657,-0.0541,-0.0414,-0.0218,-0.0271,-0.0013,0.0022,0.0069,0.0264,0.0266,0.0343,0.0343,0.0344,0.029,0,0,0,0,0]}]]